Retour au catalogue

ONEWEB-0095

ActifCommunicationsPO
NORAD 45436·PAYLOAD·🇬🇧 United Kingdom

Lancé Mar 21, 2020 depuis Baikonur Cosmodrome

Loading…

Prochains Passages (prochaines 24 heures)

TLE

FraisSource: CelesTrak SupGP

Époque: Sep 14, 2026, 22:42 UTC

1 45436C 20020N   26257.94598796 -.00002235  00000+0 -63150-2 0  2572
2 45436  87.8957   3.2244 0001482 125.1218 336.8801 13.11414838    12

Suivez ONEWEB-0095 en temps réel avec AllMySat

Download on the App Store